Main page
METAR-TAF:

METAR-TAF

Airports :

Algeciras, Spain

Algeciras Heliport

latitude: 36-07-44N, longitude: 05-26-28W, elevation: 30 m

Current weather observation

The report was made 37 minutes ago, at 18:30 UTC
Wind 8 kt from the East/Southeast
Temperature 19°C
Humidity 68%
Pressure 1011 hPa
Visibility 10 km or more
no clouds below 1500 m and no cumulonimbus

METAR: LEAG 231830Z AUTO 11008KT CAVOK 19/13 Q1011

Time: 21:07 (19:07 UTC)


TAF: missing

Weather observations and forecasts of more than 4000 airports (METAR and TAF reports).

The available stations are represented by yellow and red dots on the map.

Hover mouse over dot to see the name of the station.

Then click to see weather observations and forecasts.

To change the map : click on the green buttons with a black cross to zoom in, on the green button with a dash to zoom out, or on the green arrows for adjacent maps.


METAR-TAF: